Simultaneous Nadir Overpasses (SNOs) Predictions

Prediction of SNOs between GOES-15 and METOP-C Satellite Orbit:

Table of predicted SNOs for the next 14.0 days since TLE Epoch: 9/23/2023
Index Date Time (GOES-15) GOES-15 Lat,Lon METOP-C Lat,Lon Distance(km) Time Diff (sec)
1 09/23/2023 14:15:01 0.27, 104.99 0.98, 108.05 349.40 80
2 09/25/2023 02:33:55 -0.29, 103.28 -0.31, 103.42 16.19 80
3 09/26/2023 14:55:39 0.31, 101.77 -0.37, 98.75 343.38 80
4 09/27/2023 14:32:22 0.29, 100.72 0.96, 103.71 340.83 80
5 09/29/2023 02:51:16 -0.30, 98.99 -0.31, 99.07 9.27 80
6 09/30/2023 15:13:01 0.32, 97.46 -0.36, 94.40 348.56 80
7 10/01/2023 14:49:43 0.30, 96.40 0.97, 99.35 336.46 80
8 10/03/2023 03:08:37 -0.31, 94.67 -0.34, 94.72 5.96 80
9 10/04/2023 15:30:21 0.32, 93.13 -0.39, 90.06 350.85 80
10 10/05/2023 15:07:03 0.30, 92.07 0.95, 95.01 334.60 80
